Station Historical Data
Daily Summary for April 25, 2017 Units:  Metric    English   Both
« Previous Day
Next Day »
Daily Weekly Monthly Yearly Custom
  High: Low: Average:
Temperature: 18.5 °C 7.7 °C 12.9 °C
Dew Point: 13.2 °C 3.1 °C 9 °C
Humidity: 90% 64% 78%
Wind Speed: 16.1km/h 0km/h 5.1km/h
Wind Gust: 24.1km/h - -
Wind- - ENE
Pressure: 1016.8 hPa 1010 hPa -
Precipitation: 9.14 mm    
Historical Graphs
 
 
Tabular Data for April 25, 2017
Time Temperature Dew Point Pressure Wind Wind Speed Wind Gust Humidity Rainfall Rate (Hourly)
00:00 9.8 °C 3.3 °C 1016.8 hPa ENE 4.8 km/h 11.3 km/h 64% 0 mm
00:05 9.7 °C 3.2 °C 1016.8 hPa NE 8 km/h 9.7 km/h 64% 0 mm
00:10 9.7 °C 3.2 °C 1016.8 hPa ENE 4.8 km/h 12.9 km/h 64% 0 mm
00:15 9.6 °C 3.3 °C 1016.8 hPa Calm   9.7 km/h 65% 0 mm
00:20 9.6 °C 3.3 °C 1016.8 hPa NNE 1.6 km/h 8 km/h 65% 0 mm
00:25 9.6 °C 3.3 °C 1016.8 hPa East 3.2 km/h 9.7 km/h 65% 0 mm
00:30 9.3 °C 3.3 °C 1016.8 hPa ENE 3.2 km/h 9.7 km/h 66% 0 mm
00:35 9.1 °C 3.2 °C 1016.8 hPa ENE 1.6 km/h 6.4 km/h 67% 0 mm
00:40 8.9 °C 3.1 °C 1016.8 hPa ENE 1.6 km/h 6.4 km/h 67% 0 mm
00:45 8.8 °C 3.2 °C 1016.8 hPa ENE 1.6 km/h 4.8 km/h 68% 0 mm
00:50 8.8 °C 3.2 °C 1016.8 hPa ENE 3.2 km/h 9.7 km/h 68% 0 mm
00:55 8.9 °C 3.3 °C 1016.8 hPa NE 1.6 km/h 11.3 km/h 68% 0 mm
01:00 8.9 °C 3.3 °C 1016.8 hPa Calm   4.8 km/h 68% 0 mm
01:05 8.9 °C 3.3 °C 1016.8 hPa NE 3.2 km/h 9.7 km/h 68% 0 mm
01:10 8.8 °C 3.4 °C 1016.8 hPa ENE 3.2 km/h 9.7 km/h 69% 0 mm
01:15 8.7 °C 3.3 °C 1016.8 hPa ENE 3.2 km/h 8 km/h 69% 0 mm
01:20 8.7 °C 3.3 °C 1016.8 hPa ENE 3.2 km/h 9.7 km/h 69% 0 mm
01:25 8.7 °C 3.5 °C 1016.8 hPa East 8 km/h 11.3 km/h 70% 0 mm
01:30 8.7 °C 3.5 °C 1016.8 hPa ENE 1.6 km/h 11.3 km/h 70% 0 mm
01:35 8.6 °C 3.4 °C 1016.8 hPa ENE 4.8 km/h 11.3 km/h 70% 0 mm
01:40 8.4 °C 3.2 °C 1016.5 hPa NE 1.6 km/h 6.4 km/h 70% 0 mm
01:45 8.3 °C 3.3 °C 1016.5 hPa NE 3.2 km/h 8 km/h 71% 0 mm
01:50 8.2 °C 3.3 °C 1016.5 hPa ENE 3.2 km/h 6.4 km/h 71% 0 mm
01:55 8.1 °C 3.4 °C 1016.5 hPa NE 4.8 km/h 8 km/h 72% 0 mm
02:00 8.2 °C 3.4 °C 1016.5 hPa NE 1.6 km/h 9.7 km/h 72% 0 mm
02:05 8.1 °C 3.4 °C 1016.1 hPa NE 3.2 km/h 9.7 km/h 72% 0 mm
02:10 8.1 °C 3.3 °C 1016.1 hPa NE 3.2 km/h 6.4 km/h 72% 0 mm
02:15 8 °C 3.3 °C 1016.1 hPa ENE 1.6 km/h 4.8 km/h 72% 0 mm
02:20 8 °C 3.3 °C 1016.1 hPa ENE 3.2 km/h 6.4 km/h 72% 0 mm
02:25 8.1 °C 3.3 °C 1016.1 hPa East 3.2 km/h 8 km/h 72% 0 mm
02:30 8.1 °C 3.3 °C 1016.1 hPa ESE 1.6 km/h 6.4 km/h 72% 0 mm
02:35 7.9 °C 3.4 °C 1015.8 hPa East 3.2 km/h 8 km/h 73% 0 mm
02:40 7.9 °C 3.3 °C 1015.8 hPa ENE 1.6 km/h 8 km/h 73% 0 mm
02:45 7.8 °C 3.3 °C 1015.8 hPa East 3.2 km/h 8 km/h 73% 0 mm
02:50 7.8 °C 3.4 °C 1015.8 hPa ENE 4.8 km/h 4.8 km/h 74% 0 mm
02:55 7.7 °C 3.4 °C 1015.8 hPa East 3.2 km/h 6.4 km/h 74% 0 mm
03:00 7.8 °C 3.4 °C 1015.5 hPa ENE 3.2 km/h 8 km/h 74% 0 mm
03:05 7.8 °C 3.5 °C 1015.5 hPa ENE 3.2 km/h 8 km/h 74% 0 mm
03:10 7.9 °C 3.6 °C 1015.5 hPa ENE 3.2 km/h 8 km/h 74% 0 mm
03:15 8.1 °C 3.7 °C 1015.5 hPa East 3.2 km/h 4.8 km/h 74% 0 mm
03:20 8.2 °C 3.8 °C 1015.5 hPa East 1.6 km/h 4.8 km/h 74% 0 mm
03:25 8.3 °C 3.9 °C 1015.5 hPa East 1.6 km/h 3.2 km/h 74% 0 mm
03:30 8.3 °C 3.9 °C 1015.1 hPa Calm   4.8 km/h 74% 0 mm
03:35 8.4 °C 4.1 °C 1015.1 hPa East 1.6 km/h 4.8 km/h 74% 0 mm
03:40 8.5 °C 3.9 °C 1015.1 hPa East 1.6 km/h 4.8 km/h 73% 0 mm
03:45 8.6 °C 4.2 °C 1015.1 hPa Calm   3.2 km/h 74% 0 mm
03:50 8.7 °C 4.1 °C 1015.1 hPa East 3.2 km/h 8 km/h 73% 0 mm
03:55 8.7 °C 4.1 °C 1015.1 hPa Calm   4.8 km/h 73% 0 mm
04:00 8.7 °C 4.2 °C 1015.1 hPa East 1.6 km/h 8 km/h 73% 0 mm
04:05 8.8 °C 4.2 °C 1015.1 hPa East 1.6 km/h 8 km/h 73% 0 mm
04:10 8.8 °C 4.3 °C 1014.8 hPa ENE 3.2 km/h 8 km/h 73% 0 mm
04:15 8.9 °C 4.4 °C 1014.8 hPa East 3.2 km/h 8 km/h 73% 0 mm
04:20 9.1 °C 4.4 °C 1014.8 hPa East 3.2 km/h 8 km/h 73% 0 mm
04:25 9.2 °C 4.4 °C 1014.8 hPa East 4.8 km/h 4.8 km/h 72% 0 mm
04:30 9.3 °C 4.7 °C 1014.8 hPa Calm   4.8 km/h 73% 0 mm
04:35 9.4 °C 4.7 °C 1014.8 hPa ENE 3.2 km/h 9.7 km/h 72% 0 mm
04:40 9.5 °C 4.7 °C 1014.8 hPa NE 4.8 km/h 11.3 km/h 72% 0 mm
04:45 9.6 °C 4.8 °C 1014.8 hPa ENE 4.8 km/h 11.3 km/h 72% 0 mm
04:50 9.7 °C 4.8 °C 1014.8 hPa NE 4.8 km/h 8 km/h 72% 0 mm
04:55 9.8 °C 4.9 °C 1014.8 hPa NE 4.8 km/h 9.7 km/h 72% 0 mm
05:00 9.9 °C 5.1 °C 1014.8 hPa ENE 3.2 km/h 12.9 km/h 72% 0 mm
05:05 10 °C 5.2 °C 1014.8 hPa NE 4.8 km/h 8 km/h 72% 0 mm
05:10 10.1 °C 5.1 °C 1014.8 hPa NE 3.2 km/h 12.9 km/h 71% 0 mm
05:15 10.3 °C 5.2 °C 1014.8 hPa ENE 3.2 km/h 11.3 km/h 71% 0 mm
05:20 10.3 °C 5.3 °C 1014.8 hPa ENE 4.8 km/h 9.7 km/h 71% 0 mm
05:25 10.4 °C 5.3 °C 1014.8 hPa NE 4.8 km/h 11.3 km/h 71% 0 mm
05:30 10.5 °C 5.3 °C 1014.8 hPa NE 4.8 km/h 11.3 km/h 70% 0 mm
05:35 10.5 °C 5.3 °C 1014.8 hPa NE 6.4 km/h 11.3 km/h 70% 0 mm
05:40 10.6 °C 5.4 °C 1014.8 hPa NE 4.8 km/h 9.7 km/h 70% 0 mm
05:45 10.7 °C 5.4 °C 1014.8 hPa NE 4.8 km/h 12.9 km/h 70% 0 mm
05:50 10.7 °C 5.9 °C 1014.8 hPa NE 4.8 km/h 12.9 km/h 72% 0 mm
05:55 10.6 °C 5.9 °C 1014.8 hPa NE 1.6 km/h 8 km/h 73% 0 mm
06:00 10.3 °C 6.1 °C 1014.8 hPa NE 6.4 km/h 6.4 km/h 75% 0.25 mm
06:05 10.2 °C 6.3 °C 1014.8 hPa NE 3.2 km/h 8 km/h 77% 0.25 mm
06:10 10.1 °C 6.4 °C 1015.1 hPa NE 3.2 km/h 8 km/h 78% 0.51 mm
06:15 9.9 °C 6.6 °C 1015.1 hPa NE 1.6 km/h 4.8 km/h 80% 0.51 mm
06:20 9.8 °C 6.3 °C 1015.1 hPa Calm   4.8 km/h 79% 0.51 mm
06:25 9.8 °C 6.5 °C 1015.1 hPa ESE 3.2 km/h 8 km/h 80% 0.76 mm
06:30 9.7 °C 6.4 °C 1015.1 hPa ENE 3.2 km/h 8 km/h 80% 0.76 mm
06:35 9.7 °C 6.4 °C 1015.5 hPa ENE 1.6 km/h 8 km/h 80% 1.27 mm
06:40 9.6 °C 6.4 °C 1015.5 hPa ENE 3.2 km/h 8 km/h 81% 1.52 mm
06:45 9.4 °C 6.7 °C 1015.5 hPa East 3.2 km/h 8 km/h 83% 1.78 mm
06:50 9.4 °C 6.7 °C 1015.5 hPa East 3.2 km/h 8 km/h 83% 1.78 mm
06:55 9.4 °C 6.8 °C 1015.5 hPa NE 1.6 km/h 6.4 km/h 84% 2.03 mm
07:00 9.4 °C 6.9 °C 1015.5 hPa NE 1.6 km/h 8 km/h 84% 1.78 mm
07:05 9.5 °C 6.9 °C 1015.5 hPa NE 3.2 km/h 8 km/h 84% 2.03 mm
07:10 9.5 °C 7.1 °C 1015.5 hPa NE 3.2 km/h 8 km/h 85% 2.03 mm
07:15 9.4 °C 7 °C 1015.5 hPa NE 4.8 km/h 11.3 km/h 85% 2.03 mm
07:20 9.3 °C 6.9 °C 1015.5 hPa NE 6.4 km/h 12.9 km/h 85% 2.29 mm
07:25 9.2 °C 7 °C 1015.5 hPa NE 6.4 km/h 12.9 km/h 86% 2.29 mm
07:30 9.2 °C 6.9 °C 1015.5 hPa NE 6.4 km/h 14.5 km/h 86% 2.54 mm
07:35 9.1 °C 6.8 °C 1015.5 hPa NE 6.4 km/h 16.1 km/h 86% 2.29 mm
07:40 9.1 °C 7 °C 1015.5 hPa ENE 4.8 km/h 12.9 km/h 87% 2.29 mm
07:45 9.1 °C 7 °C 1015.5 hPa ENE 4.8 km/h 11.3 km/h 87% 2.29 mm
07:50 9.1 °C 7.2 °C 1015.5 hPa NE 4.8 km/h 11.3 km/h 88% 2.79 mm
07:55 9.1 °C 7.2 °C 1015.8 hPa NE 6.4 km/h 12.9 km/h 88% 2.54 mm
08:00 9.1 °C 7.2 °C 1015.5 hPa NE 6.4 km/h 11.3 km/h 88% 3.3 mm
08:05 9.1 °C 7.2 °C 1015.8 hPa NE 6.4 km/h 12.9 km/h 88% 4.06 mm
08:10 8.9 °C 7.2 °C 1015.8 hPa NE 6.4 km/h 12.9 km/h 89% 4.32 mm
08:15 9.1 °C 7.3 °C 1015.8 hPa NE 6.4 km/h 14.5 km/h 89% 4.32 mm
08:20 9.1 °C 7.3 °C 1015.8 hPa NE 6.4 km/h 14.5 km/h 89% 4.32 mm
08:25 9.1 °C 7.3 °C 1015.8 hPa NE 6.4 km/h 12.9 km/h 89% 4.32 mm
08:30 9.1 °C 7.3 °C 1015.8 hPa NE 8 km/h 14.5 km/h 89% 4.32 mm
08:35 9.1 °C 7.3 °C 1015.8 hPa NE 6.4 km/h 12.9 km/h 89% 4.32 mm
08:40 9.1 °C 7.3 °C 1015.8 hPa NE 9.7 km/h 14.5 km/h 89% 4.06 mm
08:45 9.1 °C 7.6 °C 1015.8 hPa NE 3.2 km/h 11.3 km/h 90% 3.81 mm
08:50 9.2 °C 7.7 °C 1015.8 hPa NE 3.2 km/h 14.5 km/h 90% 3.56 mm
08:55 9.2 °C 7.7 °C 1015.8 hPa NE 8 km/h 11.3 km/h 90% 3.56 mm
09:00 9.2 °C 7.7 °C 1015.8 hPa NE 4.8 km/h 8 km/h 90% 2.79 mm
09:05 9.2 °C 7.7 °C 1015.8 hPa NE 4.8 km/h 12.9 km/h 90% 2.03 mm
09:10 9.3 °C 7.8 °C 1015.8 hPa NE 4.8 km/h 12.9 km/h 90% 1.52 mm
09:15 9.4 °C 7.8 °C 1015.8 hPa NE 4.8 km/h 12.9 km/h 90% 1.27 mm
09:20 9.5 °C 7.9 °C 1015.8 hPa NE 6.4 km/h 12.9 km/h 90% 1.02 mm
09:25 9.6 °C 8 °C 1015.8 hPa NE 3.2 km/h 11.3 km/h 90% 1.02 mm
09:30 9.7 °C 8.1 °C 1015.8 hPa NE 8 km/h 11.3 km/h 90% 0.76 mm
09:35 9.7 °C 8.2 °C 1015.8 hPa NE 6.4 km/h 12.9 km/h 90% 0.51 mm
09:40 9.8 °C 8.2 °C 1015.8 hPa NE 6.4 km/h 12.9 km/h 90% 0.51 mm
09:45 9.9 °C 8.4 °C 1015.8 hPa NE 6.4 km/h 14.5 km/h 90% 0.25 mm
09:50 10 °C 8.4 °C 1015.8 hPa NE 6.4 km/h 14.5 km/h 90% 0.25 mm
09:55 10.1 °C 8.4 °C 1015.8 hPa NE 6.4 km/h 14.5 km/h 89% 0.25 mm
10:00 10.2 °C 8.5 °C 1015.8 hPa NE 8 km/h 11.3 km/h 89% 0.25 mm
10:05 10.3 °C 8.6 °C 1015.5 hPa NE 6.4 km/h 11.3 km/h 89% 0 mm
10:10 10.4 °C 8.7 °C 1015.5 hPa NE 11.3 km/h 11.3 km/h 89% 0 mm
10:15 10.4 °C 8.7 °C 1015.5 hPa NE 9.7 km/h 12.9 km/h 89% 0 mm
10:20 10.6 °C 8.8 °C 1015.5 hPa ENE 11.3 km/h 11.3 km/h 89% 0 mm
10:25 10.7 °C 9 °C 1015.5 hPa North 9.7 km/h 14.5 km/h 89% 0 mm
10:30 10.8 °C 8.9 °C 1015.5 hPa ENE 8 km/h 12.9 km/h 88% 0.25 mm
10:35 10.9 °C 9 °C 1015.5 hPa NE 6.4 km/h 12.9 km/h 88% 0.25 mm
10:40 11 °C 9.1 °C 1015.5 hPa ENE 6.4 km/h 12.9 km/h 88% 0.25 mm
10:45 11.2 °C 9.3 °C 1015.5 hPa NE 4.8 km/h 11.3 km/h 88% 0.25 mm
10:50 11.2 °C 9.3 °C 1015.5 hPa NE 4.8 km/h 11.3 km/h 88% 0.25 mm
10:55 11.3 °C 9.6 °C 1015.5 hPa ENE 4.8 km/h 11.3 km/h 89% 0.25 mm
11:00 11.3 °C 9.4 °C 1015.5 hPa ENE 4.8 km/h 11.3 km/h 88% 0.25 mm
11:10 11.5 °C 9.7 °C 1015.5 hPa NE 4.8 km/h 11.3 km/h 89% 0.25 mm
11:15 11.6 °C 9.7 °C 1015.5 hPa ENE 3.2 km/h 9.7 km/h 88% 0.25 mm
11:20 11.7 °C 9.8 °C 1015.5 hPa NE 4.8 km/h 11.3 km/h 88% 0.25 mm
11:25 11.8 °C 9.8 °C 1015.5 hPa NE 6.4 km/h 11.3 km/h 88% 0.25 mm
11:30 11.8 °C 9.9 °C 1015.1 hPa NE 6.4 km/h 11.3 km/h 88% 0 mm
11:35 11.9 °C 9.9 °C 1015.1 hPa NE 6.4 km/h 11.3 km/h 88% 0 mm
11:40 12.1 °C 10.2 °C 1015.1 hPa NE 6.4 km/h 11.3 km/h 88% 0 mm
11:45 12.2 °C 10.3 °C 1015.1 hPa NE 4.8 km/h 8 km/h 88% 0.25 mm
11:50 12.4 °C 10.7 °C 1015.1 hPa ENE 4.8 km/h 11.3 km/h 89% 0.25 mm
11:55 12.4 °C 10.5 °C 1015.1 hPa ENE 4.8 km/h 11.3 km/h 88% 0.25 mm
12:00 12.6 °C 10.7 °C 1015.1 hPa NE 4.8 km/h 11.3 km/h 88% 0.25 mm
12:05 12.9 °C 11.1 °C 1014.8 hPa NE 4.8 km/h 11.3 km/h 89% 0.25 mm
12:10 12.9 °C 10.9 °C 1014.8 hPa NE 4.8 km/h 8 km/h 88% 0.25 mm
12:15 13 °C 11.1 °C 1014.8 hPa ENE 12.9 km/h 12.9 km/h 88% 0.25 mm
12:20 13.1 °C 11.1 °C 1014.8 hPa NE 6.4 km/h 12.9 km/h 88% 0.25 mm
12:25 13.1 °C 11.1 °C 1014.8 hPa NE 9.7 km/h 11.3 km/h 88% 0.25 mm
12:30 13.3 °C 11.3 °C 1014.4 hPa ENE 8 km/h 9.7 km/h 88% 0.25 mm
12:35 13.2 °C 11.1 °C 1014.4 hPa ENE 6.4 km/h 9.7 km/h 87% 0.25 mm
12:40 13.4 °C 11.5 °C 1014.4 hPa East 4.8 km/h 9.7 km/h 88% 0.25 mm
12:45 13.6 °C 11.7 °C 1014.4 hPa East 3.2 km/h 9.7 km/h 88% 0 mm
12:50 13.6 °C 11.3 °C 1014.1 hPa East 4.8 km/h 12.9 km/h 86% 0 mm
12:55 13.7 °C 11.4 °C 1014.1 hPa ESE 3.2 km/h 11.3 km/h 86% 0 mm
13:00 13.8 °C 11.5 °C 1014.1 hPa East 4.8 km/h 9.7 km/h 86% 0 mm
13:05 13.7 °C 11.2 °C 1014.1 hPa East 3.2 km/h 12.9 km/h 85% 0.25 mm
13:10 13.7 °C 11.2 °C 1014.1 hPa East 4.8 km/h 12.9 km/h 85% 0.25 mm
13:15 13.8 °C 11.6 °C 1013.8 hPa East 4.8 km/h 12.9 km/h 86% 0.25 mm
13:20 13.8 °C 11.2 °C 1013.8 hPa East 4.8 km/h 12.9 km/h 84% 0.25 mm
13:25 13.9 °C 11.4 °C 1013.4 hPa East 4.8 km/h 12.9 km/h 85% 0.25 mm
13:30 14.2 °C 11.5 °C 1013.4 hPa ESE 3.2 km/h 12.9 km/h 84% 0.25 mm
13:35 14.4 °C 11.7 °C 1013.4 hPa East 3.2 km/h 11.3 km/h 84% 0.25 mm
13:40 14.5 °C 11.8 °C 1013.4 hPa NE 3.2 km/h 8 km/h 84% 0.25 mm
13:45 14.7 °C 11.9 °C 1013.4 hPa ENE 4.8 km/h 12.9 km/h 83% 0.25 mm
13:50 14.9 °C 12.1 °C 1013.1 hPa ENE 1.6 km/h 11.3 km/h 83% 0.25 mm
13:55 15.1 °C 12.1 °C 1013.4 hPa ESE 8 km/h 16.1 km/h 82% 0.25 mm
14:00 15.3 °C 12.2 °C 1013.1 hPa East 11.3 km/h 14.5 km/h 82% 0.25 mm
14:05 15.4 °C 12.2 °C 1013.1 hPa ENE 6.4 km/h 12.9 km/h 81% 0 mm
14:10 15.6 °C 12.1 °C 1013.1 hPa NE 6.4 km/h 14.5 km/h 80% 0 mm
14:15 15.7 °C 12.4 °C 1013.1 hPa ENE 6.4 km/h 14.5 km/h 81% 0 mm
14:20 15.8 °C 12.5 °C 1013.1 hPa ENE 4.8 km/h 12.9 km/h 81% 0 mm
14:25 15.9 °C 12.5 °C 1012.8 hPa ENE 4.8 km/h 14.5 km/h 80% 0 mm
14:30 15.9 °C 12.5 °C 1012.8 hPa ENE 6.4 km/h 14.5 km/h 80% 0 mm
14:35 16 °C 12.3 °C 1012.8 hPa ENE 6.4 km/h 14.5 km/h 79% 0 mm
14:40 16.1 °C 12.4 °C 1012.8 hPa ENE 8 km/h 14.5 km/h 79% 0 mm
14:45 16.1 °C 12.4 °C 1012.8 hPa NNE 8 km/h 11.3 km/h 79% 0 mm
14:50 16.2 °C 12.5 °C 1012.8 hPa NE 4.8 km/h 16.1 km/h 79% 0 mm
14:55 16.4 °C 12.7 °C 1012.8 hPa East 3.2 km/h 12.9 km/h 79% 0 mm
15:00 16.4 °C 12.8 °C 1012.4 hPa NE 9.7 km/h 9.7 km/h 79% 0 mm
15:05 16.4 °C 12.6 °C 1012.4 hPa ENE 8 km/h 16.1 km/h 78% 0 mm
15:10 16.8 °C 12.9 °C 1012.4 hPa NE 4.8 km/h 12.9 km/h 78% 0 mm
15:15 17.1 °C 13 °C 1012.4 hPa ENE 6.4 km/h 12.9 km/h 77% 0 mm
15:20 16.9 °C 12.6 °C 1012.1 hPa ENE 6.4 km/h 12.9 km/h 76% 0 mm
15:25 16.8 °C 12.6 °C 1012.1 hPa ENE 6.4 km/h 14.5 km/h 76% 0 mm
15:30 16.9 °C 12.6 °C 1012.1 hPa ENE 6.4 km/h 14.5 km/h 76% 0 mm
15:35 16.9 °C 12.9 °C 1012.1 hPa ENE 6.4 km/h 12.9 km/h 77% 0 mm
15:40 17.1 °C 12.8 °C 1012.1 hPa Calm   14.5 km/h 76% 0 mm
15:45 17.2 °C 12.9 °C 1012.1 hPa ENE 4.8 km/h 14.5 km/h 76% 0 mm
15:50 17.1 °C 12.8 °C 1012.1 hPa NE 6.4 km/h 12.9 km/h 76% 0 mm
15:55 17.1 °C 12.6 °C 1012.1 hPa NE 6.4 km/h 14.5 km/h 75% 0 mm
16:00 17.1 °C 12.6 °C 1012.1 hPa East 8 km/h 12.9 km/h 75% 0 mm
16:05 17.1 °C 12.6 °C 1012.1 hPa ENE 6.4 km/h 11.3 km/h 75% 0 mm
16:10 17.1 °C 12.6 °C 1012.1 hPa ENE 6.4 km/h 12.9 km/h 75% 0 mm
16:15 17 °C 12.6 °C 1011.7 hPa NE 6.4 km/h 14.5 km/h 75% 0 mm
16:20 17 °C 12.7 °C 1011.7 hPa NE 8 km/h 14.5 km/h 76% 0 mm
16:25 16.9 °C 12.5 °C 1011.7 hPa NE 8 km/h 16.1 km/h 75% 0 mm
16:30 16.9 °C 12.7 °C 1011.7 hPa NNE 9.7 km/h 11.3 km/h 76% 0 mm
16:35 17 °C 12.7 °C 1011.7 hPa ENE 6.4 km/h 14.5 km/h 76% 0 mm
16:40 16.9 °C 12.7 °C 1011.7 hPa NE 6.4 km/h 12.9 km/h 76% 0 mm
16:45 16.9 °C 12.7 °C 1011.7 hPa NE 6.4 km/h 12.9 km/h 76% 0 mm
16:50 17.1 °C 12.8 °C 1011.7 hPa NE 8 km/h 16.1 km/h 76% 0 mm
16:55 17 °C 12.6 °C 1011.7 hPa NE 8 km/h 16.1 km/h 75% 0 mm
17:00 17.1 °C 12.6 °C 1011.7 hPa NE 9.7 km/h 17.7 km/h 75% 0 mm
17:05 17.2 °C 12.5 °C 1011.7 hPa NE 3.2 km/h 17.7 km/h 74% 0 mm
17:10 17.3 °C 12.6 °C 1011.7 hPa NE 3.2 km/h 16.1 km/h 74% 0 mm
17:15 17.4 °C 12.7 °C 1011.7 hPa NE 8 km/h 16.1 km/h 74% 0 mm
17:20 17.3 °C 12.4 °C 1011.7 hPa NE 8 km/h 17.7 km/h 73% 0 mm
17:25 17.3 °C 12.6 °C 1011.7 hPa NE 11.3 km/h 16.1 km/h 74% 0 mm
17:30 17.3 °C 12.6 °C 1011.7 hPa NE 6.4 km/h 16.1 km/h 74% 0 mm
17:35 17.3 °C 12.4 °C 1011.4 hPa NE 4.8 km/h 14.5 km/h 73% 0 mm
17:40 17.5 °C 12.6 °C 1011.4 hPa NE 6.4 km/h 16.1 km/h 73% 0 mm
17:45 17.6 °C 12.7 °C 1011.4 hPa NE 9.7 km/h 20.9 km/h 73% 0 mm
17:50 17.6 °C 12.7 °C 1011.4 hPa ENE 9.7 km/h 20.9 km/h 73% 0 mm
17:55 17.6 °C 12.7 °C 1011.1 hPa ENE 9.7 km/h 19.3 km/h 73% 0 mm
18:00 17.8 °C 12.7 °C 1011.1 hPa ENE 9.7 km/h 19.3 km/h 72% 0 mm
18:05 18.1 °C 13 °C 1011.1 hPa ENE 9.7 km/h 19.3 km/h 72% 0 mm
18:10 18.4 °C 13.2 °C 1011.1 hPa ENE 11.3 km/h 20.9 km/h 72% 0 mm
18:15 18.5 °C 12.9 °C 1010.7 hPa ENE 16.1 km/h 16.1 km/h 70% 0 mm
18:20 18.4 °C 12.9 °C 1010.7 hPa NE 9.7 km/h 20.9 km/h 70% 0 mm
18:25 18.5 °C 12.9 °C 1010.7 hPa ENE 4.8 km/h 24.1 km/h 70% 0 mm
18:30 18.4 °C 12.8 °C 1010.7 hPa NE 8 km/h 20.9 km/h 70% 0 mm
18:35 18.2 °C 12.8 °C 1010.4 hPa ESE 8 km/h 22.5 km/h 71% 0 mm
18:40 18 °C 12.7 °C 1010.7 hPa NE 9.7 km/h 19.3 km/h 71% 0 mm
18:45 17.9 °C 12.6 °C 1010.7 hPa NE 8 km/h 19.3 km/h 71% 0 mm
18:50 17.9 °C 12.6 °C 1010.4 hPa NE 9.7 km/h 19.3 km/h 71% 0 mm
18:55 17.9 °C 12.6 °C 1010.4 hPa NE 9.7 km/h 19.3 km/h 71% 0 mm
19:00 17.9 °C 12.8 °C 1010.4 hPa ENE 8 km/h 16.1 km/h 72% 0 mm
19:05 17.9 °C 12.6 °C 1010.4 hPa ENE 8 km/h 14.5 km/h 71% 0 mm
19:10 17.8 °C 12.5 °C 1010.4 hPa ENE 8 km/h 14.5 km/h 71% 0 mm
19:15 17.7 °C 12.4 °C 1010.4 hPa ENE 8 km/h 16.1 km/h 71% 0 mm
19:20 17.7 °C 12.3 °C 1010.4 hPa ENE 8 km/h 16.1 km/h 71% 0 mm
19:25 17.6 °C 12.2 °C 1010.4 hPa ENE 6.4 km/h 12.9 km/h 71% 0 mm
19:30 17.5 °C 12.2 °C 1010.4 hPa East 3.2 km/h 12.9 km/h 71% 0 mm
19:35 17.4 °C 12.3 °C 1010.4 hPa East 8 km/h 14.5 km/h 72% 0 mm
19:40 17.3 °C 12.2 °C 1010.4 hPa ENE 4.8 km/h 11.3 km/h 72% 0 mm
19:45 17.3 °C 12.2 °C 1010.4 hPa ENE 4.8 km/h 12.9 km/h 72% 0 mm
19:50 17.3 °C 12.2 °C 1010.4 hPa ENE 4.8 km/h 12.9 km/h 72% 0 mm
19:55 17.3 °C 12 °C 1010.4 hPa East 4.8 km/h 8 km/h 71% 0 mm
20:00 17.3 °C 11.9 °C 1010 hPa East 4.8 km/h 9.7 km/h 71% 0 mm
20:05 17.2 °C 12.1 °C 1010 hPa ESE 1.6 km/h 8 km/h 72% 0 mm
20:10 17.2 °C 12.1 °C 1010 hPa East 1.6 km/h 9.7 km/h 72% 0 mm
20:15 17.3 °C 11.8 °C 1010 hPa SSE 8 km/h 17.7 km/h 70% 0 mm
20:20 17.4 °C 11.7 °C 1010 hPa ESE 6.4 km/h 17.7 km/h 69% 0 mm
20:25 17.3 °C 11.6 °C 1010 hPa SE 6.4 km/h 12.9 km/h 69% 0 mm
20:30 17.3 °C 11.6 °C 1010.4 hPa ESE 3.2 km/h 12.9 km/h 69% 0 mm
20:35 17.3 °C 11.6 °C 1010.4 hPa ESE 3.2 km/h 9.7 km/h 69% 0 mm
20:40 17.2 °C 11.5 °C 1010.4 hPa ESE 3.2 km/h 12.9 km/h 69% 0 mm
20:45 17.2 °C 11.4 °C 1010.4 hPa East 8 km/h 20.9 km/h 69% 0 mm
20:50 17.2 °C 11.2 °C 1010.4 hPa ESE 8 km/h 20.9 km/h 68% 0 mm
20:55 17.2 °C 11.2 °C 1010 hPa ESE 8 km/h 14.5 km/h 68% 0 mm
21:00 17.1 °C 11.2 °C 1010.4 hPa SE 9.7 km/h 19.3 km/h 68% 0 mm
21:05 17.1 °C 11.2 °C 1010.4 hPa East 9.7 km/h 17.7 km/h 68% 0 mm
21:10 17.1 °C 11.1 °C 1010.4 hPa SSE 3.2 km/h 17.7 km/h 68% 0 mm
21:15 17 °C 11.1 °C 1010.7 hPa SSE 8 km/h 12.9 km/h 68% 0 mm
21:20 17 °C 11.1 °C 1010.7 hPa SE 6.4 km/h 14.5 km/h 68% 0 mm
21:25 16.9 °C 11.2 °C 1010.7 hPa SE 6.4 km/h 20.9 km/h 69% 0 mm
21:30 16.9 °C 11.2 °C 1010.7 hPa SSE 6.4 km/h 20.9 km/h 69% 0 mm
21:35 16.8 °C 11.1 °C 1010.7 hPa SSE 8 km/h 19.3 km/h 69% 0 mm
21:40 16.8 °C 11.3 °C 1010.7 hPa SSE 9.7 km/h 16.1 km/h 70% 0 mm
21:45 16.7 °C 11.2 °C 1010.7 hPa SSE 1.6 km/h 12.9 km/h 70% 0 mm
21:50 16.6 °C 11.3 °C 1010.7 hPa SSE 11.3 km/h 17.7 km/h 71% 0 mm
21:55 16.5 °C 11.2 °C 1010.7 hPa SE 4.8 km/h 16.1 km/h 71% 0 mm
22:00 16.3 °C 11.3 °C 1010.7 hPa South 9.7 km/h 9.7 km/h 72% 0 mm
22:05 16.2 °C 11.4 °C 1010.7 hPa SSE 6.4 km/h 12.9 km/h 73% 0 mm
22:10 16 °C 11.6 °C 1010.7 hPa SE 3.2 km/h 11.3 km/h 75% 0 mm
22:15 15.8 °C 11.6 °C 1010.7 hPa SSE 1.6 km/h 11.3 km/h 76% 0 mm
22:20 15.7 °C 11.5 °C 1010.7 hPa SSE 3.2 km/h 6.4 km/h 76% 0 mm
22:25 15.7 °C 11.7 °C 1010.7 hPa SE 3.2 km/h 9.7 km/h 77% 0 mm
22:30 15.6 °C 11.6 °C 1010.7 hPa SE 3.2 km/h 9.7 km/h 77% 0 mm
22:35 15.4 °C 11.6 °C 1010.4 hPa SE 4.8 km/h 12.9 km/h 78% 0 mm
22:40 15.4 °C 11.6 °C 1010.4 hPa SE 4.8 km/h 12.9 km/h 78% 0 mm
22:45 15.3 °C 11.4 °C 1010.4 hPa SE 4.8 km/h 11.3 km/h 78% 0 mm
22:50 15.2 °C 11.4 °C 1010.4 hPa SE 1.6 km/h 9.7 km/h 78% 0 mm
22:55 15.2 °C 11.6 °C 1010.4 hPa SE 3.2 km/h 9.7 km/h 79% 0 mm
23:00 15.1 °C 11.5 °C 1010.4 hPa SE 1.6 km/h 8 km/h 79% 0 mm
23:05 15.1 °C 11.4 °C 1010.4 hPa SE 3.2 km/h 4.8 km/h 79% 0 mm
23:10 15.1 °C 11.4 °C 1010 hPa SE 1.6 km/h 6.4 km/h 79% 0 mm
23:20 15.1 °C 11.4 °C 1010 hPa SE 3.2 km/h 6.4 km/h 79% 0 mm
23:25 15.1 °C 11.4 °C 1010 hPa SE 1.6 km/h 6.4 km/h 79% 0 mm
23:30 15 °C 11.6 °C 1010 hPa SE 1.6 km/h 4.8 km/h 80% 0 mm
23:35 15 °C 11.6 °C 1010 hPa Calm   4.8 km/h 80% 0 mm
23:40 14.9 °C 11.4 °C 1010 hPa Calm     80% 0 mm
23:45 14.8 °C 11.4 °C 1010 hPa Calm     80% 0 mm
23:50 14.8 °C 11.4 °C 1010 hPa Calm     80% 0 mm
23:55 14.7 °C 11.5 °C 1010 hPa Calm     81% 0 mm
Buffalo, New York, USA
Compliments of Weather Underground - 2.5 mb